[[{"header":{"parameterUnit":"m.s-1","parameterCategory":1,"la1":30.2991,"la2":30.254,"lo1":-89.0895,"lo2":-89.0444,"dy":0.0017,"dx":0.0017,"nx":28,"ny":28,"refTime":"2025-04-15T21:00:00:Z","depth":0,"parameterNumber":2,"parameterNumberName":"U-component_of_WINDS"},"data":[0,0,0,0,0,0,0,0,0,0,0,0,0,0,0,0,0,0,0,0,0,0,0,0,0,0,0,0,0,0,0,0,0,0,0,0,0,0,0,0,0,0,0,0,0,0,0,0,0,0,0,0,0,0,0,0,0,0,-0.4012,-0.4012,0,-0.3971,-0.3971,-0.397,-0.3957,-0.3957,-0.3958,-0.3958,-0.3914,-0.3912,-0.3911,0,0,0,0,0,0,0,0,0,0,0,0,0,-0.4076,-0.4075,-0.4012,-0.4012,-0.4011,-0.3971,-0.3971,-0.397,-0.3957,-0.3957,-0.3958,-0.3958,-0.3914,-0.3912,-0.3911,0,0,0,0,0,0,0,0,0,0,0,0,0,-0.4043,-0.4075,-0.4012,-0.4,-0.3999,-0.3971,-0.3971,-0.397,-0.3957,-0.3957,-0.3958,-0.3958,-0.3915,-0.3913,-0.3911,-0.3892,0,0,-0.3904,-0.3904,0,0,0,0,0,0,0,0,-0.4045,-0.4041,-0.4002,-0.4001,-0.3999,-0.397,-0.3977,-0.3944,-0.3957,-0.3973,-0.3958,-0.3958,-0.3932,-0.3928,-0.392,-0.389,-0.3888,-0.3904,-0.3903,-0.3902,-0.3902,0,0,0,0,0,0,0,-0.4047,-0.4042,-0.3996,-0.4002,-0.4,-0.3995,-0.3991,-0.3971,-0.3951,-0.3971,-0.397,-0.3966,-0.3931,-0.3922,-0.3919,-0.3888,-0.3904,-0.3902,-0.3901,-0.39,-0.3838,-0.3837,0,0,0,0,0,0,-0.4052,-0.4044,-0.3997,-0.3995,-0.4023,-0.3994,-0.3989,-0.3979,-0.3951,-0.3947,-0.3966,-0.3965,-0.3925,-0.3921,-0.3917,-0.3892,-0.3902,-0.39,-0.3899,-0.3838,-0.3838,-0.3837,0,0,0,0,0,0,-0.4053,-0.4048,-0.3999,-0.4019,-0.4013,-0.3993,-0.3981,-0.3978,-0.3969,-0.3947,-0.3943,-0.396,-0.3925,-0.392,-0.3898,-0.3891,-0.3899,-0.3897,-0.3839,-0.3838,-0.3837,-0.3843,0,0,0,0,0,0,-0.4055,-0.4049,-0.4042,-0.4019,-0.4012,-0.3982,-0.3981,-0.3977,-0.3966,-0.3965,-0.3941,-0.3937,-0.3925,-0.3901,-0.3896,-0.3888,-0.3896,-0.3839,-0.3838,-0.3838,-0.3844,-0.3843,-0.3842,0,0,0,0,0,-0.4058,-0.4046,-0.4042,-0.4036,-0.4004,-0.3981,-0.3977,-0.3964,-0.3965,-0.3958,-0.3943,-0.3938,-0.3892,-0.3899,-0.3893,-0.3884,-0.384,-0.3839,-0.3838,-0.3844,-0.3843,-0.3842,0,0,0,0,0,0,-0.4068,-0.4043,-0.4038,-0.4019,-0.4002,-0.3979,-0.397,-0.3964,-0.3946,-0.3946,-0.393,-0.3925,-0.3903,-0.3892,-0.39,-0.3864,-0.3866,-0.3863,-0.3872,-0.3871,-0.3871,-0.3874,-0.3894,0,0,0,0,0,-0.4068,-0.4053,-0.4031,-0.4016,-0.4008,-0.399,-0.398,-0.3971,-0.3953,-0.3946,-0.393,-0.3912,-0.3894,-0.3882,-0.3864,-0.3842,-0.3835,-0.3833,-0.3832,-0.3831,-0.3829,-0.3815,-0.3813,-0.3834,-0.3834,-0.3834,0,0,-0.4068,-0.4052,-0.4044,-0.4018,-0.4004,-0.3987,-0.3985,-0.3968,-0.3955,-0.3944,-0.3922,-0.3909,-0.3888,-0.3865,-0.3854,-0.3855,-0.3822,-0.383,-0.383,-0.3828,-0.3813,-0.3811,-0.381,-0.3833,-0.3833,-0.3833,0,0,-0.406,-0.4047,-0.4032,-0.4018,-0.3997,-0.3985,-0.3981,-0.3959,-0.395,-0.3928,-0.3918,-0.3902,-0.3871,-0.3855,-0.3844,-0.3827,-0.382,-0.3821,-0.3817,-0.3803,-0.3801,-0.38,-0.3792,-0.379,-0.3819,-0.3819,-0.3819,0,-0.4062,-0.4038,-0.4025,-0.4008,-0.3996,-0.3985,-0.3968,-0.3955,-0.3929,-0.3921,-0.3921,-0.3881,-0.3866,-0.3838,-0.3834,-0.3825,-0.3819,-0.3824,-0.3803,-0.3801,-0.3799,-0.3792,-0.3789,-0.382,-0.382,-0.382,-0.382,0,-0.4041,-0.4024,-0.4014,-0.399,-0.3976,-0.396,-0.3943,-0.3931,-0.3922,-0.391,-0.3886,-0.3867,-0.3844,-0.3837,-0.3829,-0.3808,-0.3808,-0.3806,-0.3808,-0.3798,-0.379,-0.3787,-0.382,-0.382,-0.382,-0.382,0,0,-0.404,-0.4006,-0.4003,-0.3991,-0.3966,-0.3952,-0.3933,-0.3911,-0.39,-0.3882,-0.3865,-0.3838,-0.3835,-0.3822,-0.3812,-0.38,-0.3785,-0.3798,-0.3798,-0.3795,-0.3758,-0.3759,-0.3756,-0.3781,-0.378,-0.378,-0.3759,0,-0.4027,-0.3995,-0.3982,-0.3956,-0.3939,-0.3927,-0.3911,-0.3893,-0.388,-0.3862,-0.3848,-0.3828,-0.3827,-0.3818,-0.3806,-0.379,-0.3777,-0.3791,-0.3763,-0.3762,-0.3768,-0.3752,-0.3754,-0.3735,-0.3756,-0.3756,-0.3755,0,-0.4009,-0.399,-0.3962,-0.3938,-0.393,-0.3916,-0.3893,-0.3877,-0.3855,-0.3847,-0.3831,-0.3821,-0.3799,-0.3802,-0.3771,-0.3781,-0.3769,-0.3759,-0.3758,-0.3754,-0.3758,-0.3747,-0.3729,-0.3726,-0.3751,-0.3751,-0.3751,0,-0.4009,-0.3977,-0.3955,-0.3945,-0.3916,-0.3906,-0.3893,-0.3872,-0.3859,-0.3838,-0.3829,-0.3807,-0.3794,-0.3776,-0.3759,-0.3763,-0.3729,-0.3731,-0.372,-0.372,-0.3713,-0.3714,-0.3692,-0.3707,-0.3707,-0.3707,-0.3707,0,-0.3996,-0.3979,-0.3955,-0.3942,-0.3921,-0.3905,-0.3885,-0.3871,-0.3852,-0.3835,-0.3823,-0.3807,-0.3786,-0.3767,-0.3754,-0.3729,-0.3724,-0.3715,-0.3711,-0.3715,-0.3716,-0.3707,-0.3707,-0.3706,-0.3706,-0.3706,-0.3707,0,-0.3993,-0.3976,-0.3952,-0.3926,-0.3918,-0.3905,-0.3881,-0.3867,-0.3853,-0.3831,-0.3825,-0.3802,-0.3778,-0.376,-0.3729,-0.372,-0.3693,-0.369,-0.3701,-0.3699,-0.3688,-0.3689,-0.3659,-0.3653,-0.3673,-0.3673,-0.3673,0,-0.3985,-0.3972,-0.3944,-0.3932,-0.3919,-0.3899,-0.3885,-0.3868,-0.3854,-0.3827,-0.3815,-0.379,-0.377,-0.3732,-0.3712,-0.3687,-0.3683,-0.3674,-0.3679,-0.3683,-0.3681,-0.3681,-0.3679,-0.3673,-0.3673,-0.3673,-0.3673,0,-0.3974,-0.3966,-0.3946,-0.3923,-0.3907,-0.3888,-0.3869,-0.3859,-0.3837,-0.3821,-0.3797,-0.3781,-0.3748,-0.3723,-0.3697,-0.3682,-0.3673,-0.3671,-0.3667,-0.3671,-0.3677,-0.3672,-0.3698,-0.3672,-0.3672,-0.3672,-0.3672,-0.3672,-0.3967,-0.3954,-0.3932,-0.391,-0.3893,-0.3875,-0.3859,-0.3843,-0.3822,-0.3795,-0.3786,-0.376,-0.3736,-0.3699,-0.3683,-0.3662,-0.3661,-0.3656,-0.3654,-0.3653,-0.3652,-0.3681,-0.3657,-0.3657,-0.3657,-0.3657,-0.3657,0,-0.3954,-0.3939,-0.3919,-0.3891,-0.3874,-0.3867,-0.3845,-0.383,-0.3807,-0.3786,-0.3766,-0.3736,-0.3711,-0.3688,-0.3662,-0.3648,-0.3643,-0.3642,-0.3642,-0.3638,-0.3655,-0.3661,-0.3646,-0.3646,-0.3646,-0.3646,-0.3646,-0.3646,-0.3945,-0.3921,-0.391,-0.3877,-0.3861,-0.3836,-0.3824,-0.3806,-0.3788,-0.3756,-0.3735,-0.3721,-0.3698,-0.3669,-0.3645,-0.3639,-0.3629,-0.3628,-0.362,-0.3636,-0.3638,-0.3639,-0.3644,-0.3626,-0.3626,-0.3605,-0.3605,-0.3605]},{"header":{"parameterUnit":"m.s-1","parameterCategory":1,"la1":30.2991,"la2":30.254,"lo1":-89.0895,"lo2":-89.0444,"dy":0.0017,"dx":0.0017,"nx":28,"ny":28,"refTime":"2025-04-15T21:00:00:Z","depth":0,"parameterNumber":3,"parameterNumberName":"V-component_of_WINDS"},"data":[0,0,0,0,0,0,0,0,0,0,0,0,0,0,0,0,0,0,0,0,0,0,0,0,0,0,0,0,0,0,0,0,0,0,0,0,0,0,0,0,0,0,0,0,0,0,0,0,0,0,0,0,0,0,0,0,0,0,-3.5379,-3.5379,0,-3.5357,-3.5356,-3.5356,-3.5419,-3.5421,-3.5423,-3.5425,-3.5394,-3.5391,-3.5389,0,0,0,0,0,0,0,0,0,0,0,0,0,-3.5471,-3.5469,-3.5379,-3.5379,-3.5378,-3.5357,-3.5356,-3.5356,-3.5419,-3.5421,-3.5423,-3.5426,-3.5395,-3.5392,-3.5389,0,0,0,0,0,0,0,0,0,0,0,0,0,-3.5438,-3.5468,-3.5379,-3.5407,-3.541,-3.5357,-3.5356,-3.5356,-3.5418,-3.5421,-3.5424,-3.5427,-3.5396,-3.5392,-3.5388,-3.5304,0,0,-3.5376,-3.5374,0,0,0,0,0,0,0,0,-3.544,-3.5434,-3.5403,-3.5405,-3.5408,-3.5394,-3.5378,-3.5338,-3.5417,-3.5415,-3.5425,-3.5428,-3.5391,-3.5388,-3.5377,-3.5303,-3.5302,-3.5376,-3.5373,-3.5371,-3.537,0,0,0,0,0,0,0,-3.5442,-3.5436,-3.537,-3.5403,-3.5405,-3.5419,-3.5418,-3.537,-3.5386,-3.5415,-3.542,-3.5417,-3.5393,-3.538,-3.5376,-3.5301,-3.5376,-3.5372,-3.537,-3.5368,-3.5161,-3.5158,0,0,0,0,0,0,-3.5441,-3.5437,-3.5371,-3.5369,-3.5432,-3.5415,-3.5414,-3.5395,-3.5387,-3.5389,-3.5414,-3.542,-3.5386,-3.5381,-3.5376,-3.5279,-3.5371,-3.5368,-3.5365,-3.5164,-3.516,-3.5157,0,0,0,0,0,0,-3.5443,-3.5435,-3.5371,-3.5405,-3.5398,-3.5411,-3.5389,-3.5393,-3.5381,-3.5386,-3.5389,-3.5399,-3.5388,-3.5381,-3.5323,-3.5279,-3.5366,-3.5362,-3.5168,-3.5163,-3.5159,-3.5084,0,0,0,0,0,0,-3.5445,-3.5435,-3.5404,-3.5403,-3.5396,-3.532,-3.5387,-3.5391,-3.5375,-3.5382,-3.5373,-3.5374,-3.539,-3.5329,-3.5319,-3.5275,-3.5359,-3.5172,-3.5166,-3.516,-3.509,-3.5077,-3.5066,0,0,0,0,0,-3.5449,-3.5381,-3.5402,-3.5394,-3.5358,-3.5318,-3.5313,-3.5335,-3.5371,-3.534,-3.5344,-3.5374,-3.5286,-3.5322,-3.5312,-3.5266,-3.5175,-3.5167,-3.5161,-3.5096,-3.508,-3.5067,0,0,0,0,0,0,-3.5372,-3.5382,-3.5405,-3.5336,-3.5326,-3.5328,-3.5289,-3.5316,-3.5294,-3.5301,-3.5327,-3.5324,-3.5261,-3.5258,-3.5298,-3.5186,-3.5236,-3.5227,-3.519,-3.5175,-3.5163,-3.5165,-3.5356,0,0,0,0,0,-3.5349,-3.5317,-3.5326,-3.5264,-3.5259,-3.5275,-3.5258,-3.5277,-3.5266,-3.5261,-3.5261,-3.5248,-3.5218,-3.5196,-3.5168,-3.5091,-3.509,-3.5055,-3.5043,-3.5033,-3.5024,-3.4985,-3.4969,-3.5134,-3.5134,-3.5134,0,0,-3.5297,-3.5298,-3.5276,-3.5249,-3.5244,-3.521,-3.5271,-3.5231,-3.5206,-3.5254,-3.5201,-3.52,-3.5187,-3.512,-3.509,-3.5115,-3.4979,-3.5024,-3.5016,-3.5012,-3.4976,-3.496,-3.4947,-3.5129,-3.513,-3.5131,0,0,-3.5186,-3.5184,-3.5134,-3.5128,-3.5121,-3.5133,-3.5121,-3.512,-3.5123,-3.507,-3.5107,-3.5076,-3.5023,-3.5013,-3.5001,-3.4892,-3.4919,-3.4882,-3.4817,-3.4779,-3.4766,-3.4755,-3.4717,-3.4703,-3.4873,-3.4873,-3.4873,0,-3.5122,-3.5074,-3.5103,-3.5063,-3.5051,-3.5097,-3.5047,-3.5039,-3.5021,-3.5011,-3.504,-3.4977,-3.4971,-3.4904,-3.4878,-3.4866,-3.4853,-3.4882,-3.4767,-3.4755,-3.4745,-3.4709,-3.4694,-3.4868,-3.4869,-3.4869,-3.487,0,-3.4996,-3.4963,-3.4923,-3.491,-3.4893,-3.4847,-3.4868,-3.4848,-3.4869,-3.4877,-3.4824,-3.482,-3.4793,-3.4779,-3.4797,-3.4714,-3.4731,-3.4763,-3.4813,-3.4725,-3.4691,-3.4677,-3.4862,-3.4864,-3.4865,-3.4866,0,0,-3.4833,-3.484,-3.4825,-3.4821,-3.4818,-3.4792,-3.4749,-3.4727,-3.4709,-3.4696,-3.4661,-3.4617,-3.4649,-3.4635,-3.4653,-3.4619,-3.4535,-3.4656,-3.4656,-3.4634,-3.4445,-3.4421,-3.4404,-3.4554,-3.4552,-3.455,-3.4447,0,-3.4724,-3.4654,-3.4681,-3.4608,-3.4578,-3.4624,-3.4587,-3.4581,-3.4589,-3.4564,-3.4572,-3.4541,-3.4584,-3.4577,-3.4546,-3.4552,-3.4497,-3.456,-3.452,-3.4519,-3.4522,-3.4387,-3.436,-3.4263,-3.4434,-3.4432,-3.443,0,-3.4587,-3.4574,-3.4499,-3.4505,-3.4494,-3.446,-3.4444,-3.4419,-3.4414,-3.4422,-3.441,-3.4436,-3.4394,-3.4446,-3.4389,-3.4431,-3.4417,-3.4417,-3.4414,-3.441,-3.4468,-3.4379,-3.4232,-3.4218,-3.4409,-3.4411,-3.4413,0,-3.4477,-3.4439,-3.4391,-3.4386,-3.4391,-3.4367,-3.4368,-3.4366,-3.4352,-3.4337,-3.4328,-3.4307,-3.4295,-3.4278,-3.4298,-3.4334,-3.4238,-3.4292,-3.4243,-3.4243,-3.4219,-3.422,-3.4068,-3.4211,-3.4211,-3.4211,-3.4212,0,-3.4352,-3.4304,-3.4342,-3.4311,-3.426,-3.4292,-3.4239,-3.4245,-3.4244,-3.4215,-3.4253,-3.4224,-3.4253,-3.4227,-3.4242,-3.4193,-3.4187,-3.4192,-3.4197,-3.4189,-3.4188,-3.4179,-3.4186,-3.4207,-3.4208,-3.4209,-3.421,0,-3.4218,-3.4242,-3.4192,-3.4204,-3.4206,-3.4167,-3.4176,-3.4148,-3.4161,-3.4125,-3.4118,-3.4136,-3.4109,-3.4128,-3.4098,-3.4109,-3.4045,-3.4059,-3.4047,-3.4051,-3.4002,-3.4006,-3.3837,-3.3817,-3.3974,-3.3972,-3.3971,0,-3.4137,-3.4102,-3.4112,-3.4097,-3.4097,-3.4072,-3.4059,-3.409,-3.4075,-3.4069,-3.4042,-3.4019,-3.4001,-3.3954,-3.3964,-3.3943,-3.3956,-3.3899,-3.3953,-3.3947,-3.3956,-3.3958,-3.3955,-3.3887,-3.3885,-3.3884,-3.3883,0,-3.399,-3.4004,-3.3986,-3.3973,-3.3959,-3.3949,-3.3942,-3.3927,-3.3959,-3.394,-3.3914,-3.3901,-3.3875,-3.385,-3.3834,-3.3833,-3.3863,-3.3866,-3.3854,-3.3844,-3.384,-3.3842,-3.4017,-3.3869,-3.3871,-3.3872,-3.3872,-3.3873,-3.3879,-3.3852,-3.3856,-3.3836,-3.3835,-3.3829,-3.3805,-3.3817,-3.3797,-3.3779,-3.3799,-3.3767,-3.3766,-3.3747,-3.3744,-3.3719,-3.3742,-3.3724,-3.372,-3.3714,-3.3708,-3.3845,-3.3716,-3.3717,-3.3717,-3.3717,-3.3718,0,-3.3735,-3.3741,-3.3723,-3.3714,-3.3699,-3.3733,-3.3728,-3.3711,-3.3685,-3.3682,-3.3666,-3.3638,-3.3616,-3.3626,-3.3607,-3.3586,-3.3599,-3.358,-3.3581,-3.3581,-3.3688,-3.3701,-3.3569,-3.3569,-3.3569,-3.357,-3.357,-3.357,-3.3658,-3.3614,-3.363,-3.3586,-3.3593,-3.3565,-3.356,-3.3555,-3.3553,-3.3521,-3.3505,-3.3513,-3.3516,-3.3498,-3.348,-3.3484,-3.3475,-3.345,-3.3458,-3.3558,-3.3573,-3.3586,-3.3599,-3.3448,-3.3448,-3.3353,-3.3352,-3.3352]}]]